DateTimeUTC,F1_A11,F1_S11,BsB_S11,BsG_S11,BsR_S11,BbsB_S11,BbsG_S11,BbsR_S11,BaB_A11,BaG_A11,BaR_A11,Tu_S11,T_S11,Uu_S11,U_S11,P_S11,T1_A11
2021-04-16T04:00:00Z,00000200,21000000,,,,,,,-000.53,0000.11,-000.27,18.0,25.1,,00.0,0645.9,31.1
2021-04-16T04:01:00Z,00000200,21000000,,,,,,,0000.03,-000.28,-000.42,18.0,25.1,,00.0,0645.9,31.0
2021-04-16T04:02:00Z,00000200,21000000,,,,,,,0000.11,-000.11,0000.54,18.0,25.1,,00.0,0645.9,31.0
2021-04-16T04:03:00Z,00000200,61000000,,,,,,,0000.08,-000.23,-000.03,18.0,25.1,,00.0,0645.9,31.0
2021-04-16T04:04:00Z,00000200,41000000,0000.35,0000.18,-000.02,-000.48,-000.11,-000.06,-000.12,0000.45,-000.15,17.9,24.9,,00.0,0646.6,31.0
2021-04-16T04:05:00Z,00000200,01000000,0000.64,0000.07,0000.02,0000.17,0000.15,0000.15,0000.10,0000.18,0000.05,17.9,24.8,,00.0,0646.8,31.0
2021-04-16T04:06:00Z,00000200,01000000,0001.06,0000.20,-000.11,-000.13,0000.19,-000.08,-000.18,0000.16,-000.05,17.9,24.8,,00.0,0646.8,31.0
2021-04-16T04:07:00Z,00000200,01000000,0000.85,0000.41,0000.35,0000.11,0000.03,-000.03,0000.36,0000.04,0000.30,17.9,24.8,,00.0,0646.8,31.0
2021-04-16T04:08:00Z,00000200,01000000,0000.54,0000.46,-000.09,0000.33,0000.25,-000.29,0000.11,0000.04,-000.12,18.0,24.8,,00.0,0646.8,31.1
2021-04-16T04:09:00Z,00000200,01000000,0000.16,0000.21,0000.02,0000.45,-000.05,0000.06,-000.18,-000.19,-000.03,18.1,24.8,,00.0,0646.8,31.1
2021-04-16T04:10:00Z,00000200,01000000,0000.57,0000.22,0000.05,-000.05,-000.04,-000.09,-000.07,-000.19,0000.10,18.2,24.9,,00.0,0646.8,31.1
2021-04-16T04:11:00Z,00000200,01000000,0000.22,0000.55,0000.18,-000.13,-000.01,-000.05,0000.26,0000.27,-000.18,18.2,24.9,,00.0,0646.9,31.1
2021-04-16T04:12:00Z,00000200,01000000,0000.79,0000.10,0000.06,0000.48,0000.10,-000.30,-000.22,-000.02,0000.35,18.3,24.9,,00.0,0646.9,31.1
2021-04-16T04:13:00Z,00000200,01000000,0000.62,0000.41,-000.02,-000.30,0000.17,-000.11,-000.21,0000.01,-000.20,18.3,24.9,,00.0,0646.8,31.1
2021-04-16T04:14:00Z,00000200,01000000,0000.07,0000.11,0000.08,0000.17,-000.12,0000.11,0000.69,-000.33,0000.13,18.2,24.9,,00.0,0646.8,31.1
2021-04-16T04:15:00Z,00000200,01000000,0000.60,0000.34,0000.04,0000.02,0000.06,0000.04,-000.31,0000.41,0000.06,18.2,24.9,,00.0,0646.8,31.1
2021-04-16T04:16:00Z,00000200,01000000,0000.37,0000.31,0000.25,0000.16,-000.11,-000.13,0000.22,-000.48,0000.29,18.1,24.9,,00.0,0646.8,31.1
2021-04-16T04:17:00Z,00000200,01000000,0000.72,0000.49,0000.09,0000.12,0000.19,0000.12,0000.14,0000.33,-000.22,18.1,24.9,,00.0,0646.8,31.0
2021-04-16T04:18:00Z,00000200,01000000,0000.09,0000.30,0000.29,0000.18,-000.09,0000.29,0000.09,0000.36,0000.33,18.0,24.8,,00.0,0646.7,31.0
2021-04-16T04:19:00Z,00000200,01000000,0000.43,0000.00,0000.13,-000.22,0000.01,0000.29,-000.27,-000.25,-000.32,18.0,24.8,,00.0,0646.7,31.0
2021-04-16T04:20:00Z,00000200,01000000,-000.10,0000.57,0000.06,0000.31,0000.08,-000.15,0000.39,0000.31,0000.48,17.9,24.8,,00.0,0646.8,31.0
2021-04-16T04:21:00Z,00000200,01000000,0000.30,0000.49,0000.06,-000.05,-000.21,0000.15,0000.24,0000.11,0000.00,17.9,24.8,,00.0,0646.7,31.0
2021-04-16T04:22:00Z,00000200,01000000,0000.57,0000.52,0000.08,-000.08,0000.10,0000.07,-000.18,0000.08,0000.01,18.0,24.8,,00.0,0646.7,31.0
2021-04-16T04:23:00Z,00000200,01000000,0000.51,0000.42,0000.01,0000.78,0000.15,0000.02,0000.13,0000.35,0000.21,18.1,24.8,,00.0,0646.7,31.1
2021-04-16T04:24:00Z,00000200,01000000,0000.83,0000.31,-000.01,-000.25,-000.33,0000.15,-000.13,-000.06,-000.18,18.1,24.9,,00.0,0646.6,31.1
2021-04-16T04:25:00Z,00000200,01000000,0000.39,0000.23,-000.06,-000.11,0000.10,-000.32,0000.20,0000.22,0000.17,18.2,24.9,,00.0,0646.6,31.1
2021-04-16T04:26:00Z,00000200,01000000,0000.87,0000.44,0000.03,-000.04,-000.04,0000.03,-000.02,-000.12,0000.07,18.2,24.9,,00.0,0646.6,31.1
2021-04-16T04:27:00Z,00000200,01000000,0000.12,0000.38,0000.24,0000.38,-000.12,0000.04,0000.04,-000.48,0000.11,18.2,24.9,,00.0,0646.5,31.1
2021-04-16T04:28:00Z,00000200,01000000,0000.45,0000.30,0000.09,0000.33,-000.02,-000.02,0000.05,0000.43,-000.43,18.2,24.9,,00.0,0646.6,31.1
2021-04-16T04:29:00Z,00000200,01000000,0000.45,0000.33,-000.22,-000.12,-000.16,-000.09,0000.19,-000.11,0000.18,18.1,24.9,,00.0,0646.5,31.1
2021-04-16T04:30:00Z,00000200,01000000,0000.43,0000.29,0000.05,-000.15,0000.16,-000.13,0000.32,0000.51,0000.26,18.1,24.8,,00.0,0646.5,31.0
2021-04-16T04:31:00Z,00000200,01000000,0000.77,0000.37,-000.07,0000.18,0000.03,-000.04,-000.23,-000.13,-000.13,18.0,24.8,,00.0,0646.5,31.0
2021-04-16T04:32:00Z,00000200,01000000,0000.88,0000.43,0000.11,-000.16,-000.07,-000.06,0000.03,-000.26,0000.25,17.9,24.8,,00.0,0646.5,31.0
2021-04-16T04:33:00Z,00000200,01000000,0000.36,0000.29,0000.25,0000.26,-000.02,0000.21,0000.22,-000.06,0000.05,17.9,24.8,,00.0,0646.6,31.0
2021-04-16T04:34:00Z,00000200,01000000,0000.97,0000.52,0000.43,-000.03,-000.10,-000.07,-000.20,0000.12,-000.03,17.8,24.8,,00.0,0646.6,31.0
2021-04-16T04:35:00Z,00000200,01000000,0000.60,0000.52,0000.13,-000.18,-000.02,0000.01,0000.34,0000.16,0000.16,17.8,24.7,,00.0,0646.6,31.0
2021-04-16T04:36:00Z,00000200,01000000,0000.95,0000.17,0000.18,0000.14,-000.20,0000.01,0000.33,0000.47,0000.47,17.8,24.7,,00.0,0646.5,31.0
2021-04-16T04:37:00Z,00000200,01000000,-000.26,0000.46,0000.00,0000.23,0000.03,-000.05,0000.12,0000.71,0000.10,17.8,24.7,,00.0,0646.6,31.0
2021-04-16T04:38:00Z,00000200,01000000,0000.29,0000.22,0000.01,0000.60,-000.09,-000.16,-000.06,-000.50,-000.07,17.9,24.7,,00.0,0646.6,31.1
2021-04-16T04:39:00Z,00000200,01000000,0000.38,0000.51,0000.04,0000.51,0000.11,-000.28,0000.30,0000.28,0000.20,18.0,24.8,,00.0,0646.6,31.1
2021-04-16T04:40:00Z,00000200,01000000,0000.41,0000.22,0000.30,0000.16,0000.02,0000.03,-000.03,0000.03,0000.26,18.1,24.8,,00.0,0646.5,31.1
2021-04-16T04:41:00Z,00000200,01000000,0000.45,0000.39,0000.21,0000.04,0000.10,-000.08,0000.32,0000.26,-000.05,18.1,24.9,,00.0,0646.5,31.1
2021-04-16T04:42:00Z,00000200,01000000,-000.00,0000.34,0000.26,0000.27,0000.08,-000.02,-000.32,0000.39,0000.01,18.2,24.9,,00.0,0646.4,31.1
2021-04-16T04:43:00Z,00000200,01000000,0000.52,0000.54,0000.25,-000.40,-000.07,0000.19,0000.55,-000.46,-000.03,18.2,24.9,,00.0,0646.2,31.1
2021-04-16T04:44:00Z,00000200,01000000,0000.21,0000.37,0000.30,-000.00,0000.26,0000.37,-000.01,-000.09,-000.01,18.1,24.8,,00.0,0646.4,31.0
2021-04-16T04:45:00Z,00000200,01000000,0000.33,0000.25,0000.25,-000.13,-000.07,0000.09,-000.46,-000.20,-000.17,18.0,24.8,,00.0,0646.4,31.0
2021-04-16T04:46:00Z,00000200,01000000,0000.64,0000.16,-000.00,0000.04,-000.18,-000.19,0000.15,0000.08,0000.19,18.0,24.8,,00.0,0646.4,31.0
2021-04-16T04:47:00Z,00000200,01000000,0000.30,0000.47,0000.16,-000.48,0000.22,0000.07,-000.10,0000.27,-000.01,17.9,24.8,,00.0,0646.4,31.0
2021-04-16T04:48:00Z,00000200,01000000,0000.26,0000.23,-000.01,-000.10,0000.11,-000.13,0000.01,0000.10,0000.05,17.9,24.7,,00.0,0646.2,31.0
2021-04-16T04:49:00Z,00000200,01000000,0000.59,0000.19,-000.08,0000.18,-000.12,0000.06,0000.61,0000.06,0000.38,17.8,24.7,,00.0,0646.3,31.0
2021-04-16T04:50:00Z,00000200,01000000,0000.21,0000.18,0000.17,0000.33,0000.05,0000.01,-000.01,-000.06,0000.17,17.8,24.7,,00.0,0646.5,31.0
2021-04-16T04:51:00Z,00000200,01000000,-000.03,0000.10,-000.17,0000.29,0000.08,-000.20,0000.06,0000.42,-000.08,17.8,24.7,,00.0,0646.4,31.0
2021-04-16T04:52:00Z,00000200,01000000,0000.53,0000.40,-000.05,0000.49,-000.08,0000.08,0000.19,0000.25,0000.07,17.8,24.7,,00.0,0646.4,31.0
2021-04-16T04:53:00Z,00000200,01000000,0000.29,0000.58,0000.25,0000.34,0000.02,-000.08,0000.07,-000.02,0000.10,17.9,24.7,,00.0,0646.3,31.1
2021-04-16T04:54:00Z,00000200,01000000,0000.93,0000.35,0000.09,0000.07,-000.06,0000.09,0000.22,0000.66,0000.48,18.0,24.7,,00.0,0646.2,31.1
2021-04-16T04:55:00Z,00000200,01000000,0000.22,0000.47,0000.10,0000.15,0000.02,-000.03,0000.33,-000.16,0000.31,18.1,24.8,,00.0,0646.2,31.1
2021-04-16T04:56:00Z,00000200,01000000,0000.22,0000.50,0000.26,-000.11,-000.19,0000.17,0000.05,0000.27,-000.01,18.1,24.8,,00.0,0646.2,31.1
2021-04-16T04:57:00Z,00000200,41000000,,,,,,,0001.04,0000.91,0000.33,18.3,25.0,,00.0,0646.3,31.1
2021-04-16T04:58:00Z,00000200,61000000,,,,,,,-000.71,-000.33,-000.29,18.1,25.0,,00.0,0645.2,31.1
2021-04-16T04:59:00Z,00000200,21000000,,,,,,,0000.23,-000.01,-000.09,18.2,25.0,,00.0,0645.2,31.1
